Flag for Germany Weather past 2 weeks in Schleswig, Schleswig-Holstein, Germany

Now
41 °F

Sprinkles. Overcast.


Feels Like: 34 °F
Forecast: 37 / 46 °F
Wind: 10 mph from Northwest

Location: Schleswig

Current Time: Mar 30, 2015 at 7:16:27 PM

Latest Report: Mar 30, 2015 at 6:00 PM


Visibility: 16 mi

Pressure: 29.47 "Hg

Humidity: 90%

Dew point: 38 °F

Location of SchleswigLocation

Historic Weather in Schleswig — Graph

°F

Schleswig temperature yesterday

Maximum temperature yesterday: 49 °F (at 3:00 AM)
Minimum temperature yesterday: 42 °F (at 10:00 PM)
Average temperature yesterday: 45 °F

Past Weeks' High & Low Weather Summary

 TemperatureHumidityPressure
High55 °F (Mar 18, 1:00 PM)100% (Mar 20, 6:00 AM)30.53 "Hg (Mar 20, 6:00 AM)
Low28 °F (Mar 22, 6:00 AM)31% (Mar 19, 1:00 PM)28.94 "Hg (Mar 29, 10:00 PM)
Average42 °F82%30.01 "Hg
* Reported Mar 15 5:00 PM — Mar 30 6:00 PM, Schleswig, Weather by CustomWeather, © 2015

Note: Actual official high and low records may vary slightly from our data, if they occured in-between our weather recording intervals... More about our weather records

Advertising

Schleswig weather history for previous 24 hours

 ConditionsComfort  
Time TempWeatherWind HumidityBarometerVisibility
6:00 PM
Mon, Mar 30
41 °FSprinkles. Overcast.10 mph90%29.47 "Hg16 mi
4:00 PM44 °FOvercast.15 mph74%29.38 "Hg19 mi
3:00 PM44 °FLight rain. Overcast.13 mph82%29.35 "Hg9 mi
2:00 PM44 °FSprinkles. Overcast.12 mph86%29.29 "Hg12 mi
1:00 PM44 °FOvercast.12 mph81%29.26 "Hg22 mi
12:00 PM41 °FRain showers. Overcast.12 mph92%29.23 "Hg22 mi
10:00 AM42 °FOvercast.7 mph89%29.15 "Hg25 mi
9:00 AM41 °FSprinkles. Overcast.7 mph92%29.15 "Hg19 mi
8:00 AM40 °FOvercast.7 mph95%29.12 "Hg19 mi
7:00 AM40 °FPartly sunny.6 mph91%29.09 "Hg19 mi
6:00 AM40 °FOvercast.8 mph90%29.09 "Hg19 mi
4:00 AM41 °FLight rain. Overcast.9 mph95%29.06 "Hg4 mi
3:00 AM41 °FLight rain. Low clouds.9 mph96%29.06 "Hg4 mi
2:00 AM40 °FLow clouds.6 mph98%29.06 "Hg11 mi
1:00 AM40 °FLight rain. Low clouds.6 mph98%29.03 "Hg6 mi
12:00 AM39 °FLight rain. Low clouds.8 mph97%29.00 "Hg4 mi
10:00 PM
Sun, Mar 29
42 °FRain. Low clouds.5 mph98%28.94 "Hg2 mi
9:00 PM42 °FRain. Low clouds.3 mph98%29.00 "Hg2 mi
8:00 PM43 °FLight rain. Low clouds.2 mph96%29.06 "Hg4 mi
7:00 PM43 °FLight rain. Overcast.2 mph93%29.09 "Hg9 mi
Weather by CustomWeather, © 2015

See weather overviewHow to use our weather pages